Location: Caixon
(43.4106°N, 0.0273°E)
Time: 16:06:20
(UTC+00:00)

SL-4 R/B - Pass Details

Date: 16 October 2021
Orbit: 427 x 661 km, 51.6° (Epoch: 28 November)

Event Time Altitude Azimuth Distance (km) Brightness Sun altitude
Exits shadow 05:21:45 10° 304° (NW) 1,898 4.2 -10.4°
Maximum altitude 05:25:24 26° 2° (N) 1,111 3.6 -9.8°
Drops below altitude 10° 05:28:52 10° 61° (ENE) 1,780 5.6 -9.2°
Sets 05:31:16 0° 74° (ENE) 2,623 7.0 -8.7°
